Location: Earls Croome
(52.0667°N, 2.2000°W)
Time: 08:22:50
(UTC+00:00)

Okean-O - Pass Details

Date: 17 November 2019
Orbit: 638 x 641 km, 98.2° (Epoch: 15 December)

Event Time Altitude Azimuth Distance (km) Brightness Sun altitude
Rises 06:49:37 0° 16° (NNE) 2,959 6.0 -6.6°
Reaches altitude 10° 06:51:51 10° 20° (NNE) 2,045 5.2 -6.3°
Maximum altitude 06:56:17 64° 103° (ESE) 711 3.2 -5.7°
Drops below altitude 10° 07:00:40 10° 185° (S) 2,027 5.5 -5.1°
Sets 07:02:53 0° 188° (S) 2,931 6.3 -4.8°
